{"data":{"norad_id":48100,"intl_designator":"2021-027J","name":"STARLINK-2430","alt_names":[],"object_type":"PAYLOAD","status":"ACTIVE","operator":null,"country":"US","launch_date":"2021-04-07","launch_site_code":"AFETR","launch_vehicle":null,"mission":null,"orbit_class":"UNKNOWN","rcs_meters":null,"size_class":null,"mass_kg":null,"dimensions":null,"purposes":["comms"],"wikipedia_slug":null,"has_3d_model":false,"image_url":null,"decayed_at":null,"tle_current":{"epoch":"2026-09-20T03:41:58.021728Z","epoch_age_seconds":59846,"freshness":"FRESH","line1":"1 48100U 21027J   26263.15414377 -.00000178  00000+0  60377-5 0  9990","line2":"2 48100  53.1619 327.4811 0001114  72.3292 287.7831 15.31699499302487","mean_motion":15.31699499,"eccentricity":0.0001114,"inclination_deg":53.1619,"raan_deg":327.4811,"arg_perigee_deg":72.3292,"mean_anomaly_deg":287.7831,"bstar":6.0377e-6,"rev_number":30248,"period_min":94.013218711642,"perigee_km":469.97852361735,"apogee_km":471.50445374462,"semimajor_km":6848.878488681,"source":"CELESTRAK","updated_at":"2026-09-20T09:00:38.762492Z"}}}